Regional Weather Roundup
Issued by NWS

Home | Current Version | Previous Version | Graphics & Text | Print | Product List | Glossary On
Versions: 1 2 3 4 5 6 7 8 9 10 11 12 13 14 15 16 17 18 19 20 21 22 23 24 25 26 27 28 29 30 31 32 33 34 35 36 37 38 39 40 41 42 43 44 45 46 47 48 49 50
000
ASUS45 KBOU 162007
RWRCO

WEATHER ROUNDUP FOR COLORADO
NATIONAL WEATHER SERVICE DENVER/BOULDER CO
200 PM MDT WED AUG 16 2017

NOTE: "FAIR" INDICATES FEW OR NO CLOUDS BELOW 12000 FEET WITH NO
SIGNIFICANT WEATHER AND/OR OBSTRUCTIONS TO VISIBILITY.

COZ001>005-013-030-031-162100-
...NORTHWEST COLORADO...

CITY           SKY/WX    TMP DP  RH WIND       PRES   REMARKS
CRAIG          FAIR      75  36  24 W9        30.19F
HAYDEN         FAIR      74  38  27 W15       30.23F
MEEKER         FAIR      74  35  24 W12       30.20F
RABBIT EARS PA FAIR      54  37  54 W7G20     30.44S
STEAMBOAT SPGS CLOUDY    67  40  36 W9G17     30.22S
WALDEN         FAIR      63  36  36 NW6       30.30S
$$

COZ006>008-011-162100-
...WEST CENTRAL VALLEYS...

CITY           SKY/WX    TMP DP  RH WIND       PRES   REMARKS
GRAND JUNCTION FAIR      84  36  18 NW10      30.08F
MONTROSE       FAIR      78  34  20 NW7       30.15F
EAGLE          PTSUNNY   74  32  21 VRB7      30.19F
RIFLE          FAIR      80  33  18 MISG      30.11F
DELTA          FAIR      86  33  15 S8        30.11F
NUCLA          FAIR      81  25  12 N12       30.19F
$$

COZ017>023-064>068-162100-
...SOUTHWEST COLORADO...

CITY           SKY/WX    TMP DP  RH WIND       PRES   REMARKS
DURANGO        FAIR      80  26  13 W13G23    30.20F
CORTEZ         FAIR      81  27  14 N8G18     30.16F
PAGOSA SPRINGS PTSUNNY   73  24  15 S7G18     30.27S
TELLURIDE      FAIR      67  24  19 NW3G22    30.38F
WOLF CREEK PAS NOT AVBL
$$

COZ009-010-012-014-032>034-037-058>063-162100-
...CENTRAL COLORADO...

CITY           SKY/WX    TMP DP  RH WIND       PRES   REMARKS
ASPEN          FAIR      72  35  25 VRB7      30.25F
BUENA VISTA    PTSUNNY   70  30  22 SW13G18   30.25R
COPPER MTN     PTSUNNY   54  32  43 NW13G24   30.52S
BERTHOUD PASS  PTSUNNY   43  37  81 W29G38    30.52S
COTTONWOOD PAS CLOUDY    68  23  18 NW3G20    30.38S
GUNNISON       FAIR      70  29  21 W12G17    30.26S
KREMMLING      PTSUNNY   79  30  17 SW7       30.23F
LEADVILLE      CLOUDY    57  29  34 NW9       30.38S
MONARCH PASS   PTSUNNY   52  28  40 SW24G32   30.62S
SALIDA         PTSUNNY   73  32  22 S5        30.29S
SUNLIGHT       FAIR      55  36  47 W8        30.49F
WILKERSON PASS PTSUNNY   55  28  35 W5        30.50S
$$

COZ069>075-162100-
...SAN LUIS VALLEY/SANGRE DE CRISTO MOUNTAINS...

CITY           SKY/WX    TMP DP  RH WIND       PRES   REMARKS
ALAMOSA        FAIR      73  35  25 MISG      30.24S
DEL NORTE      CLOUDY    74  35  24 E7        30.26S
LA VETA PASS   NOT AVBL
SAGUACHE       FAIR      72  30  21 NW9G21    30.26F
$$

COZ035-036-038>040-162100-
...NORTHERN COLORADO FRONT RANGE...

CITY           SKY/WX    TMP DP  RH WIND       PRES   REMARKS
DENVER INTL AP FAIR      74  44  34 N14G26    30.13F
DMNS CITY PARK   N/A     72  41  33 NE9G21    30.13R
AURORA         MOSUNNY   73  44  36 N10       30.16S
FRONT RANGE AP FAIR      73  45  35 N7G22     30.15S
ERIE MUNI ARPT CLOUDY    72  43  35 CALM      30.16F
BOULDER MUN AP FAIR      72  45  37 E5        30.13S
CENTENNIAL     FAIR      72  45  37 VRB5      30.15F
BROOMFIELD     NOT AVBL
FORT COLLINS   FAIR      75  49  39 SW7       30.11F
LONGMONT       CLOUDY    73  45  36 CALM      30.14R
$$

COZ041-046-047-076>085-087-088-162100-
...PIKES PEAK/PALMER DIVIDE AND SOUTHERN FOOTHILLS...

CITY           SKY/WX    TMP DP  RH WIND       PRES   REMARKS
COLO. SPRINGS  PTSUNNY   73  48  41 SW6       30.18F
A. F. ACADEMY  FAIR      70  49  48 S9        30.19S
SCHRIEVER AFB  PTSUNNY   70  46  43 NE7       30.18S
CHEYENNE MTN   LGT RAIN  61  54  77 SE3       30.17F
ELLICOTT       TSTM     N/A N/A N/A NE8G16    30.18R
FALCON         PTSUNNY   69  47  45 S3        30.23S
FORT CARSON    LGT RAIN  68  51  54 NE5       30.15F
LIMON          FAIR      73  49  42 N15G25    30.13F
MONUMENT HILL  FAIR      64  45  48 N5        30.24S
CANON CITY     SUNNY     79  50  36 E7        30.11S
WALSENBURG     FAIR      79  46  31 NE9       30.14F
TRINIDAD       FAIR      77  46  33 NE5       30.14F
$$

COZ042>045-048>051-090-091-162100-
...NORTHEAST COLORADO...

CITY           SKY/WX    TMP DP  RH WIND       PRES   REMARKS
GREELEY ARPT   FAIR      75  48  38 VRB5      30.10F
AKRON          FAIR      73  48  41 N15G22    30.09S
BURLINGTON     FAIR      77  53  43 NW14G24   30.05F
WRAY           NOT AVBL
YUMA           MOCLDY    72  37  28 NW15      30.06S
STERLING       FAIR      73  54  49 N10       30.04F
HOLYOKE        FAIR      73  55  53 NW13G22   30.04R
FORT MORGAN    FAIR      78  41  26 NW13G20   30.09F
$$

COZ086-089-092>099-162100-
...SOUTHEAST COLORADO...

CITY           SKY/WX    TMP DP  RH WIND       PRES   REMARKS
PUEBLO         FAIR      81  47  30 E13G20    30.07F
LA JUNTA       FAIR      80  50  34 S5        30.07F
LAMAR          FAIR      83  53  35 MISG      30.01F
SPRINGFIELD      N/A     81  52  36 N7        30.06F
$$



USA.gov is the U.S. government's official web portal to all federal, state and local government web resources and services.